SCP
0 0 0 0 0 0 0 0 0 0 0 0 0 0 0 0 0 0 0 0 0 0 0 0 0 0 0 0 0 0 0 0 0 0 0 0 0 0 0 0 0 0 0 0 0 0 0 0 0
0 0 0 0 0 0 0 0 0 0 0 0 0 0 0 0 0 0 0 0 0 0 0 0 0 0 0 0 0 0 0 0 0 0 0 0 0 0 0 0 0 0 0 0 0 0 0 0 0
0 0 0 0 0 0 0 0 0 0 0 0 0 0 0 0 0 0 0 0 0 0 0 0 0 0 0 0 0 0 0 0 0 0 0 0 0 0 0 0 0 0 0 0 0 0 0 0 0
0 0 0 0 0 0 0 0 0 0 0 0 0 0 0 0 0 0 0 0 0 0 0 0 0 0 0 0 0 0 0 0 0 0 0 0 0 0 0 0 0 0 0 0 0 0 0 0 0
0 0 0 0 0 0 0 0 0 0 0 0 0 0 0 0 0 0 0 0 0 0 0 0 0 0 0 0 0 0 0 0 0 0 0 0 0 0 0 0 0 0 0 0 0 0 0 0 0
0 0 0 0 0 0 0 0 0 0 0 0 0 0 0 0 0 0 0 0 0 0 0 0 0 0 0 0 0 0 0 0 0 0 0 0 0 0 0 0 0 0 0 0 0 0 0 0 0
0 0 0 0 0 0 0 0 0 0 0 0 0 0 0 0 0 0 0 0 0 0 0 0 0 0 0 0 0 0 0 0 0 0 0 0 0 0 0 0 0 0 0 0 0 0 0 0 0
0 0 0 0 0 0 0 0 0 0 0 0 0 0 0 0 0 0 0 0 0 0 0 0 0 0 0 0 0 0 0 0 0 0 0 0 0 0 0 0 0 0 0 0 0 0 0 0 0
0 0 0 0 0 0 0 0 0 0 0 0 0 0 0 0 0 0 0 0 0 0 0 0 0 0 0 0 0 0 0 0 0 0 0 0 0 0 0 0 0 0 0 0 0 0 0 0 0
0 0 0 0 0 0 0 0 0 0 0 0 0 0 0 0 0 0 0 0 0 0 0 0 0 0 0 0 0 0 0 0 0 0 0 0 0 0 0 0 0 0 0 0 0 0 0 0 0
0 0 0 0 0 0 0 0 0 0 0 0 0 0 0 0 0 0 0 0 0 0 0 0 0 0 0 0 0 0 0 0 0 0 0 0 0 0 0 0 0 0 0 0 0 0 0 0 0
0 0 0 0 0 0 0 0 0 0 0 0 0 0 0 0 0 0 0 0 0 0 0 0 0 0 0 0 0 0 0 0 0 0 0 0 0 0 0 0 0 0 0 0 0 0 0 0 0
0 0 0 0 0 0 0 0 0 0 0 0 0 0 0 0 0 0 0 0 0 0 0 0 0 0 0 0 0 0 0 0 0 0 0 0 0 0 0 0 0 0 0 0 0 0 0 0 0
0 0 0 0 0 0 0 0 0 0 0 0 0 0 0 0 0 0 0 0 0 0 0 0 0 0 0 0 0 0 0 0 0 0 0 0 0 0 0 0 0 0 0 0 0 0 0 0 0
0 0 0 0 0 0 0 0 0 0 0 0 0 0 0 0 0 0 0 0 0 0 0 0 0 0 0 0 0 0 0 0 0 0 0 0 0 0 0 0 0 0 0 0 0 0 0 0 0
0 0 0 0 0 0 0 0 0 0 0 0 0 0 0 0 0 0 0 0 0 0 0 0 0 0 0 0 0 0 0 0 0 0 0 0 0 0 0 0 0 0 0 0 0 0 0 0 0
0 0 0 0 0 0 0 0 0 0 0 0 0 0 0 0 0 0 0 0 0 0 0 0 0 0 0 0 0 0 0 0 0 0 0 0 0 0 0 0 0 0 0 0 0 0 0 0 0
0 0 0 0 0 0 0 0 0 0 0 0 0 0 0 0 0 0 0 0 0 0 0 0 0 0 0 0 0 0 0 0 0 0 0 0 0 0 0 0 0 0 0 0 0 0 0 0 0
0 0 0 0 0 0 0 0 0 0 0 0 0 0 0 0 0 0 0 0 0 0 0 0 0 0 0 0 0 0 0 0 0 0 0 0 0 0 0 0 0 0 0 0 0 0 0 0 0
0 0 0 0 0 0 0 0 0 0 0 0 0 0 0 0 0 0 0 0 0 0 0 0 0 0 0 0 0 0 0 0 0 0 0 0 0 0 0 0 0 0 0 0 0 0 0 0 0
0 0 0 0 0 0 0 0 0 0 0 0 0 0 0 0 0 0 0 0 0 0 0 0 0 0 0 0 0 0 0 0 0 0 0 0 0 0 0 0 0 0 0 0 0 0 0 0 0
0 0 0 0 0 0 0 0 0 0 0 0 0 0 0 0 0 0 0 0 0 0 0 0 0 0 0 0 0 0 0 0 0 0 0 0 0 0 0 0 0 0 0 0 0 0 0 0 0
0 0 0 0 0 0 0 0 0 0 0 0 0 0 0 0 0 0 0 0 0 0 0 0 0 0 0 0 0 0 0 0 0 0 0 0 0 0 0 0 0 0 0 0 0 0 0 0 0
0 0 0 0 0 0 0 0 0 0 0 0 0 0 0 0 0 0 0 0 0 0 0 0 0 0 0 0 0 0 0 0 0 0 0 0 0 0 0 0 0 0 0 0 0 0 0 0 0
0 0 0 0 0 0 0 0 0 0 0 0 0 0 0 0 0 0 0 0 0 0 0 0 0 0 0 0 0 0 0 0 0 0 0 0 0 0 0 0 0 0 0 0 0 0 0 0 0
0 0 0 0 0 0 0 0 0 0 0 0 0 0 0 0 0 0 0 0 0 0 0 0 0 0 0 0 0 0 0 0 0 0 0 0 0 0 0 0 0 0 0 0 0 0 0 0 0
0 0 0 0 0 0 0 0 0 0 0 0 0 0 0 0 0 0 0 0 0 0 0 0 0 0 0 0 0 0 0 0 0 0 0 0 0 0 0 0 0 0 0 0 0 0 0 0 0
0 0 0 0 0 0 0 0 0 0 0 0 0 0 0 0 0 0 0 0 0 0 0 0 0 0 0 0 0 0 0 0 0 0 0 0 0 0 0 0 0 0 0 0 0 0 0 0 0
0 0 0 0 0 0 0 0 0 0 0 0 0 0 0 0 0 0 0 0 0 0 0 0 0 0 0 0 0 0 0 0 0 0 0 0 0 0 0 0 0 0 0 0 0 0 0 0 0
0 0 0 0 0 0 0 0 0 0 0 0 0 0 0 0 0 0 0 0 0 0 0 0 0 0 0 0 0 0 0 0 0 0 0 0 0 0 0 0 0 0 0 0 0 0 0 0 0
Wind_Speed
14 10 6 3 4 5 7 3 2 3 3 5 5 3 5 7 6 7 5 9 14 16 16 14 14 15 14 13 13 12 12 12 12 11 11 11 11 11 11 11 11 11 11 11 11 11 11 11 10
11 9 5 4 5 6 5 3 3 5 7 5 3 0 1 7 8 8 6 10 14 16 15 14 13 14 14 14 13 12 12 12 11 11 11 11 11 10 11 11 10 10 10 10 10 9 9 9 9
11 8 4 4 6 7 3 1 6 9 6 3 2 0 3 6 8 6 7 11 13 14 13 14 14 14 15 14 13 12 12 11 11 11 11 10 10 10 10 10 10 9 9 9 9 8 8 7 7
6 4 5 6 10 8 5 1 6 6 4 2 2 4 5 5 5 8 10 11 12 12 13 15 14 14 14 14 13 12 12 11 11 11 10 10 10 10 9 9 9 8 8 8 7 7 6 6 5
4 4 6 8 11 9 5 1 3 3 4 4 3 3 6 5 10 11 9 10 11 11 13 14 14 13 13 13 13 12 12 11 10 11 10 10 10 9 8 8 8 8 7 7 6 6 5 4 3
4 4 6 9 10 9 5 2 2 3 3 3 3 2 6 6 9 9 8 9 10 11 12 13 12 12 12 11 11 11 11 10 10 10 10 10 9 8 8 7 7 7 6 6 5 4 4 3 2
4 5 9 11 8 8 4 2 3 3 3 3 2 3 7 7 8 8 7 8 10 10 11 11 9 10 10 10 10 9 9 9 9 9 9 8 8 8 7 7 6 6 6 5 5 4 3 2 1
4 4 9 11 10 8 3 2 2 2 1 1 1 1 6 9 9 8 7 7 9 9 10 10 9 9 8 7 9 9 8 8 8 8 8 8 7 7 7 6 6 6 5 5 4 4 3 3 3
4 5 9 9 8 6 3 3 2 1 1 1 3 5 9 14 11 8 6 6 7 8 8 9 10 9 8 8 9 8 8 7 8 7 8 8 5 6 6 7 7 6 5 5 4 4 4 4 5
5 7 11 7 6 5 3 3 2 2 3 3 4 7 12 11 10 9 8 8 8 8 8 8 9 8 8 8 8 6 6 6 6 5 7 5 5 4 5 8 8 7 6 5 6 6 5 5 4
5 8 7 7 5 6 5 4 2 4 5 5 6 9 11 10 9 9 9 8 8 8 8 7 8 8 7 5 6 4 4 5 6 7 7 5 4 3 3 3 4 4 5 4 5 5 4 4 3
7 8 7 6 4 5 6 6 5 5 3 2 3 9 11 10 10 10 9 8 8 8 8 7 7 7 7 6 5 5 4 4 4 5 7 5 3 3 3 3 4 4 3 4 3 3 4 4 3
9 8 7 5 4 5 7 7 7 6 3 1 2 6 8 9 9 8 7 7 7 8 9 8 7 7 7 6 5 5 4 4 5 5 5 5 4 4 4 3 3 4 3 4 3 3 3 3 3
5 6 7 6 6 5 6 8 7 7 3 2 3 5 6 7 8 7 8 8 8 8 8 8 7 7 6 5 4 4 4 4 4 4 6 6 4 4 4 4 3 3 3 3 3 3 3 3 2
6 7 8 8 7 4 4 9 10 8 5 5 5 6 6 7 7 7 7 7 7 8 8 8 8 7 7 7 6 4 4 4 4 4 6 6 5 5 4 4 4 4 4 4 3 3 2 2 3
5 6 7 6 8 6 5 10 6 6 6 7 6 5 5 6 6 6 6 6 6 7 8 8 7 7 7 6 6 4 4 4 4 4 4 6 6 6 4 4 4 4 4 3 3 3 2 3 2
6 8 9 5 6 5 7 8 4 3 5 6 6 6 6 5 5 5 5 5 5 6 7 8 8 8 7 6 5 5 4 4 4 4 4 5 6 6 5 4 4 4 3 3 3 3 3 3 3
5 7 8 7 4 4 7 8 6 5 4 6 6 6 4 4 4 4 4 4 4 4 5 6 7 8 7 6 5 4 4 4 4 4 5 6 6 7 6 4 5 4 3 3 3 3 3 3 2
7 7 8 6 3 3 7 10 9 7 6 6 5 4 3 3 2 2 3 3 3 3 4 5 5 6 6 5 6 6 6 5 4 4 5 6 6 7 6 5 5 5 5 5 5 4 4 3 2
9 8 8 4 2 3 6 11 10 9 7 5 5 4 3 2 0 1 2 2 2 2 2 4 5 5 5 5 6 4 4 4 5 4 5 7 7 7 6 7 5 5 5 5 6 5 3 3 3
9 7 6 5 4 5 6 9 8 6 6 5 4 3 2 1 1 0 1 1 1 0 1 2 3 4 5 4 3 3 3 2 4 5 6 7 7 7 6 7 6 6 6 5 6 6 6 5 4
7 5 5 4 2 3 3 5 4 5 6 5 4 2 2 1 1 1 2 2 2 1 1 1 1 1 2 3 4 5 5 6 6 5 5 5 7 7 7 7 7 7 6 6 6 6 5 5 5
4 3 4 4 3 4 5 5 5 2 3 4 4 3 1 1 2 2 3 2 2 2 2 2 2 1 1 1 3 5 4 4 3 3 4 5 5 6 6 7 7 7 6 6 6 6 6 6 5
2 2 2 2 2 5 7 6 4 2 3 1 1 2 2 2 3 3 3 4 4 4 3 3 2 2 2 1 1 2 3 2 2 3 3 3 2 3 5 5 5 6 5 6 6 6 6 6 6
2 2 1 2 4 6 5 6 3 1 2 3 4 5 4 4 3 3 4 5 5 5 5 4 4 3 3 2 1 1 1 2 2 2 2 2 2 2 3 4 4 4 4 4 4 4 5 5 5
5 4 3 3 4 2 3 5 1 2 3 4 5 4 4 4 4 4 4 4 4 5 5 5 4 4 4 4 3 2 1 0 1 1 1 1 1 1 1 2 3 3 3 3 4 4 4 3 4
3 4 3 1 2 2 4 2 2 2 3 4 4 4 4 5 5 5 5 5 5 5 5 5 5 5 5 5 4 4 4 3 2 2 1 1 1 1 1 1 1 2 2 3 3 3 3 3 4
2 1 1 1 2 3 4 3 2 3 2 3 4 4 4 5 5 5 5 5 5 4 4 5 5 4 4 5 5 4 4 4 3 2 2 2 2 2 1 1 1 2 2 2 2 2 2 3 3
2 2 2 2 2 2 2 1 2 2 3 3 3 4 5 5 5 5 5 4 4 5 4 4 5 5 4 5 5 4 4 4 4 3 3 3 2 2 2 1 1 1 2 2 2 2 2 2 3
2 3 3 2 2 2 2 2 3 4 5 4 4 4 5 4 4 4 4 4 4 4 4 4 4 4 4 4 4 4 4 4 4 4 3 3 3 2 2 2 1 1 1 1 2 2 2 2 2
Wind_Direction
310 288 266 259 245 239 249 234 125 93 81 64 55 13 12 43 45 99 134 129 121 128 137 146 145 146 144 142 140 139 137 134 131 128 125 121 118 115 111 107 104 101 98 95 92 89 85 82 79
302 292 277 247 249 253 252 190 135 87 78 82 83 3 39 79 85 108 125 122 126 131 142 148 144 145 145 143 143 143 142 139 137 134 130 126 123 122 118 114 110 106 102 99 96 94 89 85 81
286 271 265 249 243 256 274 70 102 88 97 118 139 93 35 74 104 119 126 130 128 133 141 140 145 145 146 147 147 146 145 143 142 140 137 133 127 125 122 120 116 111 107 104 101 98 94 87 82
287 255 239 249 255 259 265 261 99 114 127 144 155 117 85 55 83 112 128 134 131 134 135 142 147 148 150 151 153 152 151 150 149 146 143 137 130 126 125 125 122 118 114 111 108 103 99 93 85
252 252 243 247 252 261 274 16 107 152 163 168 180 117 94 83 95 116 139 136 134 134 132 146 148 150 152 155 156 157 157 156 153 149 146 140 136 133 133 133 131 128 124 119 115 112 110 104 91
258 237 242 243 244 246 243 228 181 208 184 159 177 138 101 117 117 134 140 137 134 131 132 145 147 149 153 157 158 159 160 158 155 155 152 148 145 145 144 143 143 140 140 135 130 125 122 120 108
254 257 252 257 255 251 235 205 208 214 199 173 163 120 116 130 127 137 139 139 131 129 133 145 153 154 153 156 157 158 159 161 160 160 156 154 153 153 152 153 156 155 154 152 150 146 148 157 178
267 269 255 253 257 258 251 223 213 239 226 88 92 136 129 137 133 137 141 135 130 132 140 151 160 162 161 160 159 158 159 161 162 161 159 157 159 160 163 166 168 168 165 166 168 171 186 207 225
269 247 246 245 253 262 254 248 214 12 60 57 56 51 108 127 136 140 143 140 137 145 153 159 163 166 166 168 167 162 163 165 163 162 164 163 176 176 177 181 171 175 178 184 189 199 213 223 234
219 238 243 262 286 293 267 253 214 186 191 183 124 95 116 133 147 157 163 165 161 163 167 167 165 168 169 172 160 171 176 172 183 177 174 187 196 182 174 168 173 180 188 200 211 218 225 230 234
227 240 260 273 315 325 309 286 255 228 220 197 169 149 142 150 162 171 177 176 173 172 174 173 169 169 169 161 159 173 177 173 193 186 181 191 190 168 158 156 166 184 197 209 211 213 223 226 228
255 261 273 287 331 324 309 304 283 255 265 341 139 148 155 169 177 182 182 180 176 178 179 181 173 169 172 167 168 171 174 173 184 187 184 183 179 178 175 175 175 184 190 202 203 207 217 226 237
254 267 280 295 307 300 302 286 282 267 271 348 80 142 167 180 183 185 182 180 180 183 180 182 180 176 174 173 174 178 179 176 184 181 183 182 178 184 188 187 181 184 187 192 204 214 216 218 232
288 281 279 275 267 266 267 269 265 258 257 217 179 177 189 193 189 187 186 184 183 183 181 179 185 184 178 179 180 182 182 180 185 177 181 186 186 186 187 188 187 195 196 197 199 207 210 216 223
297 288 274 250 241 246 259 257 241 249 251 235 214 203 196 198 195 194 191 186 181 179 177 178 185 187 186 189 188 188 186 182 186 183 183 186 192 192 188 190 192 199 200 200 202 215 214 221 223
249 251 246 221 209 213 217 249 235 216 226 238 234 221 204 199 194 196 192 187 182 178 178 179 182 188 191 193 191 192 195 191 187 184 186 192 196 197 193 195 199 199 198 195 195 204 211 224 224
214 229 232 223 196 197 215 253 252 220 219 236 237 231 215 203 199 195 186 179 177 176 178 178 180 187 191 192 194 196 196 197 191 187 189 197 201 201 197 200 201 197 197 196 196 200 205 216 224
219 237 239 226 193 213 232 251 262 272 252 248 247 238 223 211 205 182 168 164 164 169 173 178 181 185 185 186 192 198 200 201 199 198 199 199 202 201 200 200 202 196 194 197 197 205 209 207 213
284 277 267 268 287 245 248 258 257 252 252 257 264 254 237 226 217 151 143 151 159 166 171 174 180 188 183 184 192 199 206 203 204 206 205 207 205 202 200 201 200 198 200 200 198 200 209 214 197
264 273 276 289 334 287 268 267 261 253 242 239 248 263 263 251 272 97 108 122 144 170 185 189 190 188 190 196 195 196 191 201 207 206 212 215 211 208 204 202 202 201 205 204 203 201 202 207 193
248 256 271 290 315 281 283 272 245 241 240 240 239 249 281 300 271 151 116 106 114 151 221 224 207 196 197 194 187 176 174 195 206 209 213 217 215 213 207 204 205 205 205 210 207 203 200 207 207
251 253 272 286 294 264 234 275 245 224 221 225 229 233 258 308 353 30 67 92 87 39 349 321 301 213 201 193 188 186 198 209 213 212 211 210 213 215 212 208 208 210 210 211 211 210 210 204 210
274 279 257 264 273 279 244 254 268 223 227 223 209 200 193 11 28 27 34 54 54 36 18 359 358 358 340 203 202 203 217 221 207 203 211 213 212 213 214 213 213 214 214 213 211 211 212 211 213
282 296 258 242 243 251 227 227 270 236 231 214 111 107 95 67 46 34 31 42 39 32 24 13 3 358 1 350 222 216 220 216 208 211 218 217 218 214 213 211 214 218 218 217 216 214 214 216 218
230 172 150 191 210 239 205 211 242 359 32 67 68 63 62 56 51 39 34 33 31 27 21 18 18 7 1 3 344 273 231 214 214 216 217 216 220 233 220 210 211 213 220 221 214 211 218 219 220
217 206 184 199 217 245 199 213 178 72 63 62 66 60 47 41 41 44 40 39 32 25 22 18 17 10 6 10 7 9 359 280 260 271 241 230 235 246 238 207 207 210 214 217 213 209 214 213 216
206 226 265 309 310 263 225 205 149 74 73 66 58 51 39 36 37 37 36 38 36 28 21 18 16 15 13 14 17 22 20 17 13 8 357 345 355 352 338 244 206 206 210 218 214 212 214 209 213
244 236 78 192 208 246 246 231 205 153 124 86 61 46 34 38 37 34 32 31 32 28 23 23 22 21 19 20 23 24 22 20 19 26 23 11 7 10 352 312 244 211 207 212 212 215 219 212 218
202 187 198 208 241 248 262 273 15 98 94 80 62 48 44 39 38 30 21 23 27 27 26 24 21 21 24 24 26 26 21 20 22 27 20 7 11 11 350 326 306 249 223 218 212 214 206 212 222
224 217 199 199 236 250 272 274 0 52 55 59 53 46 44 36 29 24 17 20 21 21 21 19 17 19 18 19 28 28 25 23 22 22 16 9 3 358 347 340 327 307 269 236 218 222 216 208 209